[[{"header":{"parameterUnit":"m.s-1","parameterCategory":1,"la1":30.2991,"la2":30.254,"lo1":-89.0895,"lo2":-89.0444,"dy":0.0017,"dx":0.0017,"nx":28,"ny":28,"refTime":"2026-02-06T03:00:00:Z","depth":0,"parameterNumber":2,"parameterNumberName":"U-component_of_WINDS"},"data":[0,0,0,0,0,0,0,0,0,0,0,0,0,0,0,0,0,0,0,0,0,0,0,0,0,0,0,0,0,0,0,0,0,0,0,0,0,0,0,0,0,0,0,0,0,0,0,0,0,0,0,0,0,0,0,0,0,0,-0.6619,-0.6619,0,-0.6588,-0.6587,-0.6587,-0.6544,-0.6543,-0.6543,-0.6542,-0.651,-0.651,-0.651,0,0,0,0,0,0,0,0,0,0,0,0,0,-0.6642,-0.6642,-0.6619,-0.6619,-0.6618,-0.6588,-0.6587,-0.6587,-0.6544,-0.6543,-0.6542,-0.6542,-0.651,-0.651,-0.651,0,0,0,0,0,0,0,0,0,0,0,0,0,-0.6623,-0.6642,-0.6619,-0.6593,-0.6591,-0.6588,-0.6587,-0.6587,-0.6544,-0.6543,-0.6542,-0.6541,-0.6511,-0.651,-0.651,-0.653,0,0,-0.6509,-0.6509,0,0,0,0,0,0,0,0,-0.6625,-0.6623,-0.6597,-0.6595,-0.6592,-0.6569,-0.6584,-0.6568,-0.6545,-0.6562,-0.6542,-0.6541,-0.6531,-0.6529,-0.6525,-0.6529,-0.6527,-0.6509,-0.6509,-0.6509,-0.6509,0,0,0,0,0,0,0,-0.6626,-0.6624,-0.6607,-0.6597,-0.6594,-0.6583,-0.6579,-0.6581,-0.6553,-0.656,-0.6557,-0.6554,-0.6529,-0.6526,-0.6524,-0.6527,-0.6509,-0.6509,-0.6509,-0.6509,-0.6544,-0.6545,0,0,0,0,0,0,-0.6631,-0.6625,-0.6608,-0.6606,-0.6606,-0.6584,-0.6579,-0.6577,-0.6553,-0.6548,-0.6555,-0.6552,-0.6527,-0.6525,-0.6523,-0.6544,-0.6509,-0.6509,-0.6509,-0.6543,-0.6545,-0.6546,0,0,0,0,0,0,-0.6632,-0.663,-0.6609,-0.6614,-0.6611,-0.6584,-0.6582,-0.6577,-0.6574,-0.6549,-0.6543,-0.6557,-0.6526,-0.6523,-0.6528,-0.6543,-0.6509,-0.6508,-0.6542,-0.6544,-0.6545,-0.6588,0,0,0,0,0,0,-0.6632,-0.663,-0.6638,-0.6615,-0.6611,-0.6615,-0.6583,-0.6577,-0.6573,-0.6569,-0.6549,-0.6544,-0.6525,-0.6529,-0.6528,-0.6542,-0.6508,-0.6541,-0.6543,-0.6545,-0.6586,-0.6591,-0.6596,0,0,0,0,0,-0.6633,-0.6652,-0.6639,-0.6637,-0.662,-0.6616,-0.6614,-0.6591,-0.6575,-0.6582,-0.6566,-0.6545,-0.6541,-0.653,-0.6529,-0.6543,-0.654,-0.6542,-0.6545,-0.6583,-0.659,-0.6596,0,0,0,0,0,0,-0.6678,-0.6648,-0.6633,-0.6645,-0.6633,-0.6609,-0.6618,-0.6599,-0.6592,-0.6589,-0.656,-0.6556,-0.6564,-0.6554,-0.6542,-0.656,-0.6537,-0.654,-0.6567,-0.6573,-0.6579,-0.6581,-0.6508,0,0,0,0,0,-0.6688,-0.6688,-0.6662,-0.6675,-0.667,-0.6645,-0.6642,-0.6625,-0.6612,-0.6607,-0.6591,-0.658,-0.6576,-0.6574,-0.6569,-0.6583,-0.6578,-0.6592,-0.6597,-0.6602,-0.6605,-0.6611,-0.6617,-0.6554,-0.6554,-0.6554,0,0,-0.6711,-0.6695,-0.6697,-0.6683,-0.6672,-0.6672,-0.6641,-0.6643,-0.6642,-0.6608,-0.6612,-0.6599,-0.6584,-0.6594,-0.6598,-0.6586,-0.662,-0.6605,-0.6609,-0.6609,-0.6614,-0.662,-0.6625,-0.6556,-0.6555,-0.6555,0,0,-0.6753,-0.6741,-0.6749,-0.6739,-0.6723,-0.6706,-0.6708,-0.6686,-0.6676,-0.668,-0.6653,-0.6652,-0.6647,-0.6637,-0.6631,-0.6667,-0.6648,-0.6667,-0.6695,-0.6701,-0.6706,-0.671,-0.6723,-0.6728,-0.6669,-0.6669,-0.6669,0,-0.6784,-0.6782,-0.6756,-0.6759,-0.6754,-0.6722,-0.673,-0.6721,-0.6705,-0.6702,-0.6688,-0.6679,-0.6667,-0.6674,-0.6682,-0.6679,-0.668,-0.6669,-0.6707,-0.6711,-0.6715,-0.6727,-0.6732,-0.6671,-0.6671,-0.6671,-0.6671,0,-0.6821,-0.682,-0.6829,-0.6813,-0.6809,-0.6815,-0.6789,-0.6788,-0.6771,-0.6755,-0.6758,-0.6742,-0.6733,-0.6733,-0.6717,-0.6737,-0.673,-0.6712,-0.6689,-0.6724,-0.6734,-0.6739,-0.6675,-0.6674,-0.6673,-0.6673,0,0,-0.6891,-0.6859,-0.6863,-0.6855,-0.6834,-0.6833,-0.6837,-0.6827,-0.6827,-0.6816,-0.6818,-0.6813,-0.6796,-0.6789,-0.6771,-0.6777,-0.6807,-0.6758,-0.6757,-0.6768,-0.6828,-0.6842,-0.6847,-0.6793,-0.6794,-0.6794,-0.6829,0,-0.6928,-0.6933,-0.691,-0.6921,-0.692,-0.6889,-0.6892,-0.6879,-0.6864,-0.6861,-0.6845,-0.6842,-0.6819,-0.6815,-0.6819,-0.6802,-0.6818,-0.6799,-0.6795,-0.6795,-0.6801,-0.6853,-0.6868,-0.6901,-0.6833,-0.6834,-0.6834,0,-0.6974,-0.6964,-0.6976,-0.6953,-0.6952,-0.6955,-0.6944,-0.6942,-0.6926,-0.6915,-0.6907,-0.6886,-0.6888,-0.6865,-0.6867,-0.6854,-0.6851,-0.6842,-0.6843,-0.6842,-0.6817,-0.6854,-0.6912,-0.6917,-0.6841,-0.684,-0.684,0,-0.7024,-0.7014,-0.7019,-0.7013,-0.6987,-0.699,-0.6979,-0.6963,-0.6959,-0.6949,-0.6946,-0.6936,-0.6931,-0.6924,-0.6901,-0.6887,-0.6906,-0.6881,-0.6896,-0.6897,-0.6903,-0.6903,-0.6961,-0.69,-0.69,-0.69,-0.69,0,-0.7069,-0.7077,-0.7041,-0.7045,-0.7052,-0.7024,-0.7033,-0.7019,-0.7004,-0.7004,-0.6976,-0.6977,-0.6946,-0.6943,-0.6924,-0.6928,-0.6926,-0.6917,-0.6912,-0.692,-0.6921,-0.6918,-0.6915,-0.6901,-0.6901,-0.69,-0.69,0,-0.7126,-0.7103,-0.7106,-0.7081,-0.7075,-0.7082,-0.706,-0.7061,-0.7044,-0.7044,-0.7043,-0.7016,-0.701,-0.6986,-0.6975,-0.6963,-0.6973,-0.6964,-0.6979,-0.6976,-0.6992,-0.6991,-0.7051,-0.7057,-0.6992,-0.6993,-0.6993,0,-0.7157,-0.7162,-0.7137,-0.7135,-0.7125,-0.7122,-0.7117,-0.7089,-0.7085,-0.7068,-0.7071,-0.7064,-0.7056,-0.7049,-0.7028,-0.702,-0.701,-0.7031,-0.7008,-0.7015,-0.701,-0.701,-0.701,-0.7036,-0.7037,-0.7038,-0.7038,0,-0.7214,-0.7202,-0.7196,-0.7185,-0.718,-0.7171,-0.716,-0.7159,-0.7128,-0.7125,-0.7119,-0.7113,-0.7101,-0.7094,-0.7082,-0.707,-0.7049,-0.7045,-0.7048,-0.7057,-0.7065,-0.7061,-0.6992,-0.7044,-0.7044,-0.7043,-0.7043,-0.7043,-0.7259,-0.7262,-0.7245,-0.7239,-0.7227,-0.7217,-0.7217,-0.72,-0.7194,-0.7182,-0.7166,-0.7162,-0.7145,-0.7126,-0.7116,-0.7113,-0.7101,-0.7105,-0.7107,-0.7108,-0.7112,-0.7065,-0.711,-0.711,-0.711,-0.711,-0.7109,0,-0.7314,-0.7301,-0.7296,-0.7281,-0.7276,-0.7256,-0.7242,-0.724,-0.7237,-0.7223,-0.7215,-0.7208,-0.72,-0.7179,-0.7169,-0.717,-0.716,-0.7168,-0.7168,-0.7166,-0.7123,-0.7122,-0.7176,-0.7176,-0.7176,-0.7176,-0.7176,-0.7176,-0.7343,-0.7347,-0.7332,-0.733,-0.7317,-0.7313,-0.7306,-0.7297,-0.7286,-0.7279,-0.7272,-0.7258,-0.724,-0.7229,-0.722,-0.7214,-0.7212,-0.7223,-0.7214,-0.7175,-0.7169,-0.7163,-0.7161,-0.7223,-0.7223,-0.7257,-0.7257,-0.7257]},{"header":{"parameterUnit":"m.s-1","parameterCategory":1,"la1":30.2991,"la2":30.254,"lo1":-89.0895,"lo2":-89.0444,"dy":0.0017,"dx":0.0017,"nx":28,"ny":28,"refTime":"2026-02-06T03:00:00:Z","depth":0,"parameterNumber":3,"parameterNumberName":"V-component_of_WINDS"},"data":[0,0,0,0,0,0,0,0,0,0,0,0,0,0,0,0,0,0,0,0,0,0,0,0,0,0,0,0,0,0,0,0,0,0,0,0,0,0,0,0,0,0,0,0,0,0,0,0,0,0,0,0,0,0,0,0,0,0,-4.9872,-4.9873,0,-4.9943,-4.9943,-4.9944,-4.994,-4.9939,-4.9938,-4.9938,-5.0004,-5.0007,-5.0009,0,0,0,0,0,0,0,0,0,0,0,0,0,-4.9729,-4.9731,-4.9872,-4.9873,-4.9874,-4.9943,-4.9943,-4.9944,-4.9941,-4.9939,-4.9938,-4.9937,-5.0003,-5.0006,-5.0009,0,0,0,0,0,0,0,0,0,0,0,0,0,-4.9794,-4.9732,-4.9872,-4.988,-4.9882,-4.9942,-4.9944,-4.9945,-4.9941,-4.9939,-4.9938,-4.9937,-5.0002,-5.0006,-5.001,-5.0065,0,0,-5.0022,-5.0024,0,0,0,0,0,0,0,0,-4.979,-4.9799,-4.9878,-4.988,-4.9881,-4.9931,-4.9917,-4.9985,-4.9941,-4.9918,-4.9938,-4.9936,-4.9981,-4.9986,-5.0003,-5.0068,-5.0071,-5.0023,-5.0025,-5.0027,-5.0028,0,0,0,0,0,0,0,-4.9786,-4.9796,-4.99,-4.9879,-4.9881,-4.9879,-4.9887,-4.993,-4.9957,-4.992,-4.992,-4.9929,-4.9981,-4.9999,-5.0004,-5.0072,-5.0023,-5.0026,-5.0029,-5.003,-5.0189,-5.019,0,0,0,0,0,0,-4.978,-4.9793,-4.9897,-4.9902,-4.9832,-4.9883,-4.9891,-4.9917,-4.9956,-4.9961,-4.993,-4.9928,-4.9993,-4.9999,-5.0006,-5.0076,-5.0027,-5.0031,-5.0033,-5.0187,-5.0189,-5.0191,0,0,0,0,0,0,-4.9777,-4.979,-4.9894,-4.9847,-4.986,-4.9887,-4.9915,-4.9919,-4.9937,-4.9964,-4.9968,-4.9944,-4.9992,-5.0001,-5.0052,-5.0078,-5.0032,-5.0036,-5.0185,-5.0187,-5.019,-5.0213,0,0,0,0,0,0,-4.9773,-4.9789,-4.9811,-4.9848,-4.9863,-4.994,-4.9917,-4.9921,-4.9944,-4.9943,-4.9978,-4.9982,-4.9991,-5.0046,-5.0056,-5.0083,-5.0039,-5.0182,-5.0186,-5.0189,-5.021,-5.0217,-5.0222,0,0,0,0,0,-4.9768,-4.9812,-4.9812,-4.9824,-4.9891,-4.9941,-4.995,-4.9961,-4.9946,-4.9969,-4.9986,-4.9981,-5.0073,-5.0051,-5.0062,-5.0091,-5.0181,-5.0185,-5.0189,-5.0208,-5.0215,-5.0222,0,0,0,0,0,0,-4.9774,-4.9817,-4.9817,-4.9875,-4.9905,-4.994,-4.9968,-4.9968,-5.0001,-4.9998,-5.0009,-5.0017,-5.0069,-5.0084,-5.0059,-5.0147,-5.0125,-5.0131,-5.0136,-5.0143,-5.0149,-5.0144,-5.0043,0,0,0,0,0,-4.9783,-4.9822,-4.9856,-4.9904,-4.9919,-4.9942,-4.9963,-4.997,-5.0001,-5.0013,-5.0034,-5.0062,-5.0098,-5.0121,-5.0155,-5.0212,-5.0221,-5.0238,-5.0243,-5.0248,-5.0254,-5.0288,-5.0296,-5.0204,-5.0204,-5.0204,0,0,-4.98,-4.9828,-4.9852,-4.9906,-4.993,-4.9969,-4.9952,-4.9993,-5.0022,-5.0018,-5.0069,-5.0085,-5.0117,-5.0173,-5.0198,-5.0187,-5.0281,-5.0253,-5.0257,-5.026,-5.0293,-5.0301,-5.0309,-5.0207,-5.0206,-5.0206,0,0,-4.9852,-4.9877,-4.9921,-4.9947,-4.9984,-4.9999,-5.001,-5.0046,-5.0058,-5.011,-5.0109,-5.0142,-5.0202,-5.0227,-5.0247,-5.0311,-5.0308,-5.0321,-5.0351,-5.0384,-5.0392,-5.0398,-5.0423,-5.0431,-5.0327,-5.0327,-5.0327,0,-4.9868,-4.9929,-4.9943,-4.9986,-5.0011,-5.0012,-5.0057,-5.008,-5.0125,-5.0142,-5.013,-5.0208,-5.023,-5.0292,-5.0308,-5.0323,-5.0336,-5.0318,-5.039,-5.0396,-5.0403,-5.0427,-5.0436,-5.0328,-5.0328,-5.0328,-5.0328,0,-4.9948,-4.999,-5.0021,-5.0069,-5.0097,-5.014,-5.016,-5.0186,-5.0191,-5.0207,-5.026,-5.0286,-5.0327,-5.0342,-5.0345,-5.0405,-5.0398,-5.0388,-5.0365,-5.0413,-5.0436,-5.0445,-5.0331,-5.033,-5.033,-5.0329,0,0,-5.0005,-5.0063,-5.0074,-5.0098,-5.0141,-5.0173,-5.0216,-5.0259,-5.0282,-5.0313,-5.0351,-5.0403,-5.0395,-5.0418,-5.0424,-5.0453,-5.0505,-5.044,-5.0441,-5.0453,-5.0575,-5.0583,-5.0594,-5.0503,-5.0505,-5.0506,-5.0573,0,-5.0063,-5.0144,-5.0159,-5.0228,-5.0268,-5.0271,-5.0309,-5.0339,-5.0356,-5.0391,-5.0407,-5.0446,-5.0431,-5.0446,-5.0474,-5.0493,-5.053,-5.0488,-5.0538,-5.0539,-5.0531,-5.0605,-5.0614,-5.0676,-5.0581,-5.0583,-5.0584,0,-5.0141,-5.018,-5.0254,-5.0295,-5.0312,-5.0346,-5.0388,-5.0422,-5.0456,-5.0466,-5.0493,-5.0497,-5.0542,-5.0517,-5.058,-5.0551,-5.0572,-5.0584,-5.0587,-5.0593,-5.0565,-5.0615,-5.0695,-5.0705,-5.0598,-5.0596,-5.0595,0,-5.0179,-5.0248,-5.0302,-5.0321,-5.0369,-5.0394,-5.0415,-5.0448,-5.0473,-5.0509,-5.0526,-5.0565,-5.0586,-5.0616,-5.0631,-5.0611,-5.0693,-5.0669,-5.0702,-5.0702,-5.072,-5.0719,-5.0807,-5.0731,-5.0731,-5.0731,-5.073,0,-5.0243,-5.0289,-5.032,-5.0354,-5.0406,-5.0422,-5.0472,-5.0492,-5.0522,-5.0559,-5.0562,-5.0596,-5.0612,-5.0648,-5.0659,-5.0711,-5.0719,-5.0729,-5.0731,-5.073,-5.0729,-5.0744,-5.0741,-5.0733,-5.0733,-5.0732,-5.0732,0,-5.0293,-5.0316,-5.0376,-5.0418,-5.0429,-5.0466,-5.0501,-5.0533,-5.055,-5.0597,-5.0609,-5.0635,-5.0678,-5.0696,-5.0747,-5.0755,-5.0815,-5.0813,-5.0804,-5.0805,-5.0839,-5.0836,-5.0941,-5.0956,-5.0869,-5.0869,-5.087,0,-5.0333,-5.037,-5.0417,-5.0443,-5.0466,-5.0508,-5.0535,-5.0552,-5.0581,-5.0624,-5.0651,-5.0695,-5.0732,-5.08,-5.0823,-5.0863,-5.0863,-5.0897,-5.0869,-5.0867,-5.0866,-5.0865,-5.0869,-5.0903,-5.0904,-5.0904,-5.0905,0,-5.0403,-5.0414,-5.0454,-5.05,-5.0534,-5.0569,-5.0604,-5.0625,-5.0647,-5.0679,-5.0725,-5.0753,-5.0809,-5.0852,-5.0894,-5.0914,-5.0914,-5.0914,-5.0924,-5.0923,-5.0918,-5.0923,-5.082,-5.0911,-5.0911,-5.091,-5.091,-5.091,-5.0451,-5.0485,-5.0524,-5.057,-5.0599,-5.0632,-5.0666,-5.0689,-5.0728,-5.0777,-5.0784,-5.0834,-5.0868,-5.0925,-5.0947,-5.0985,-5.0976,-5.099,-5.0994,-5.0998,-5.1002,-5.0911,-5.0992,-5.0992,-5.0992,-5.0992,-5.0992,0,-5.0523,-5.055,-5.0592,-5.0643,-5.0679,-5.0678,-5.0717,-5.0747,-5.0792,-5.0825,-5.0862,-5.0916,-5.0959,-5.0986,-5.1029,-5.1055,-5.1056,-5.1066,-5.1065,-5.107,-5.1006,-5.0994,-5.1065,-5.1065,-5.1065,-5.1065,-5.1065,-5.1065,-5.0565,-5.0623,-5.0638,-5.071,-5.0735,-5.0787,-5.081,-5.084,-5.0868,-5.0929,-5.0966,-5.0984,-5.1016,-5.1062,-5.1101,-5.1108,-5.1124,-5.1135,-5.1142,-5.1081,-5.1074,-5.1067,-5.1056,-5.1138,-5.1138,-5.1203,-5.1203,-5.1204]}]]